Weather History for KMKO - November, 2012

Change the Weather History Date:

Tuesday, November 13, 2012

  Actual Average Record
Temperature  
Mean Temperature 40 °F -  
Max Temperature 55 °F 59 °F 82 °F (1999)
Min Temperature 26 °F 39 °F 19 °F (2013)
Degree Days  
Heating Degree Days 24    
Moisture  
Dew Point 27 °F    
Average Humidity 75    
Maximum Humidity 100    
Minimum Humidity 24    
Precipitation  
Precipitation 0.00 in - - ()
Sea Level Pressure  
Sea Level Pressure 30.48 in    
Wind  
Wind Speed 4 mph (SSE)    
Max Wind Speed 10 mph    
Max Gust Speed -    
Visibility 6 miles    
Events Fog    
Averages and records for this station are not official NWS values.
T = Trace of Precipitation, MM = Missing Value Source: NWS Daily Summary

Daily Weather History Graph

Daily Weather History Graph

Search for Another Location

Airport or City:

Trip Planner

Search our weather history database for the weather conditions in past years. The results will help you decide how hot, cold, wet, or windy it might be!

Date:

Astronomy

Nov. 13, 2012 Rise Set
Actual Time 6:55 AM CST 5:15 PM CST
Civil Twilight 6:28 AM CST 5:42 PM CST
Nautical Twilight 5:57 AM CST 6:13 PM CST
Astronomical Twilight 5:27 AM CST 6:43 PM CST
Moon 6:34 AM CST (11/13) 5:10 PM CST (11/13)
Length of Visible Light 11h 13m
Length of Day
10h 19m
Waning Crescent, 0% of the Moon is Illuminated
Nov 13
Waning Crescent
Nov 13
New
Nov 20
First Quarter
Nov 28
Full
Dec 6
Last Quarter

Hourly Weather History & Observations

Time (CST) Temp. Windchill Dew Point Humidity Pressure Visibility Wind Dir Wind Speed Gust Speed Precip Events Conditions
12:53 AM 34.0 °F - 26.1 °F 73% 30.52 in 10.0 mi Calm Calm - N/A   Clear
1:53 AM 32.0 °F - 27.0 °F 82% 30.52 in 10.0 mi Calm Calm - N/A   Clear
2:53 AM 30.0 °F 25.2 °F 28.0 °F 92% 30.52 in 10.0 mi South 4.6 mph - N/A   Clear
3:53 AM 30.0 °F - 28.0 °F 92% 30.52 in 10.0 mi Calm Calm - N/A   Clear
4:53 AM 27.0 °F 21.6 °F 27.0 °F 100% 30.51 in 9.0 mi South 4.6 mph - N/A   Clear
5:17 AM 26.6 °F 22.6 °F 26.6 °F 100% 30.50 in 1.5 mi South 3.5 mph - N/A   Clear
5:20 AM 26.6 °F 21.2 °F 26.6 °F 100% 30.50 in 0.8 mi South 4.6 mph - N/A   Clear
5:24 AM 26.6 °F 21.2 °F 26.6 °F 100% 30.50 in 0.2 mi South 4.6 mph - N/A Fog Light Freezing Fog
5:45 AM 28.4 °F 24.6 °F 28.4 °F 100% 30.50 in 0.8 mi South 3.5 mph - N/A   Mist
5:48 AM 28.4 °F 24.6 °F 28.4 °F 100% 30.50 in 1.2 mi South 3.5 mph - N/A   Partly Cloudy
5:53 AM 28.0 °F 22.8 °F 28.0 °F 100% 30.51 in 1.0 mi South 4.6 mph - N/A   Mist
5:56 AM 26.6 °F 21.2 °F 26.6 °F 100% 30.50 in 0.2 mi South 4.6 mph - N/A Fog Light Freezing Fog
6:18 AM 26.6 °F 21.2 °F 26.6 °F 100% 30.51 in 0.5 mi South 4.6 mph - N/A Fog Light Freezing Fog
6:37 AM 26.6 °F 22.6 °F 26.6 °F 100% 30.51 in 0.5 mi South 3.5 mph - N/A Fog Light Freezing Fog
6:50 AM 26.6 °F 21.2 °F 26.6 °F 100% 30.51 in 0.5 mi South 4.6 mph - N/A Fog Light Freezing Fog
6:53 AM 26.1 °F 20.5 °F 26.1 °F 100% 30.53 in 0.2 mi South 4.6 mph - N/A Fog Light Freezing Fog
7:43 AM 28.4 °F 23.3 °F 28.4 °F 100% 30.53 in 0.5 mi SSE 4.6 mph - N/A Fog Light Freezing Fog
7:53 AM 28.9 °F 23.9 °F 28.9 °F 100% 30.54 in 0.5 mi SSE 4.6 mph - N/A Fog Light Freezing Fog
8:03 AM 30.2 °F 25.4 °F 30.2 °F 100% 30.53 in 1.5 mi SSE 4.6 mph - N/A   Mostly Cloudy
8:07 AM 30.2 °F 25.4 °F 30.2 °F 100% 30.53 in 3.0 mi SSE 4.6 mph - N/A   Scattered Clouds
8:53 AM 36.0 °F 30.3 °F 34.0 °F 93% 30.55 in 10.0 mi SSE 6.9 mph - N/A   Clear
9:53 AM 45.0 °F 41.8 °F 35.1 °F 68% 30.55 in 10.0 mi SSE 5.8 mph - N/A   Clear
10:53 AM 50.0 °F - 30.9 °F 48% 30.53 in 10.0 mi Variable 4.6 mph - N/A   Clear
11:53 AM 54.0 °F - 25.0 °F 33% 30.49 in 10.0 mi SE 6.9 mph - N/A   Clear
12:53 PM 55.0 °F - 21.9 °F 28% 30.45 in 10.0 mi SE 10.4 mph - N/A   Clear
1:53 PM 55.9 °F - 19.9 °F 25% 30.42 in 10.0 mi South 8.1 mph - N/A   Clear
2:53 PM 55.0 °F - 19.0 °F 24% 30.39 in 10.0 mi SE 3.5 mph - N/A   Clear
3:53 PM 55.0 °F - 24.1 °F 30% 30.38 in 10.0 mi SE 8.1 mph - N/A   Clear
4:53 PM 50.0 °F - 26.1 °F 39% 30.38 in 10.0 mi ESE 6.9 mph - N/A   Clear
5:53 PM 48.0 °F - 26.1 °F 42% 30.38 in 10.0 mi ESE 3.5 mph - N/A   Clear
6:53 PM 46.0 °F 43.9 °F 26.1 °F 46% 30.40 in 10.0 mi ESE 4.6 mph - N/A   Clear
7:53 PM 46.9 °F - 23.0 °F 39% 30.43 in 10.0 mi ESE 4.6 mph - N/A   Clear
8:53 PM 45.0 °F 43.5 °F 24.1 °F 44% 30.42 in 10.0 mi SE 3.5 mph - N/A   Clear
9:53 PM 41.0 °F 37.1 °F 30.9 °F 67% 30.42 in 10.0 mi SSE 5.8 mph - N/A   Clear
10:53 PM 43.0 °F 41.3 °F 28.9 °F 58% 30.42 in 10.0 mi SSE 3.5 mph - N/A   Clear
11:53 PM 39.9 °F 36.7 °F 30.9 °F 70% 30.42 in 10.0 mi SSE 4.6 mph - N/A   Clear